Starlink 11076

operational
NORAD ID: 58709 Int'l Des: 2024-002 Owner: SPXS Country: US Constellation: starlink
LEOCIRCULAR

About Starlink 11076

Description loading...

Live Position

Loading 3D Globe...

Upcoming Passes

Altitude History

Altitude vs Time

uPlot chart will show altitude changes over time

Two-Line Element Set

1 58709U 24002E 25257.73761606 .00000410 00000-0 82441-5 0 9993
2 58709 53.1604 61.2882 0001032 80.8629 279.2506 15.69709259 98805
Epoch: Sep 14, 2025 • Age: 26 hours

Current Status

Altitude 360.5 km
Velocity 7.70 km/s
Sub-Earth Point 26.86°N, 145.69°E
Launch Date Jan 3, 2024
Age 1.7 years
Type internet

Technical Details

Classification Payload
Mass 960.00 kg
Dry Mass 910.00 kg
Total Mass 960.00 kg
Length 0.30 m
Diameter 4.10 m
Span 29.00 m
Shape Box + pan
Manufacturer SPXS
Bus Type Starlink V2MD
Phase Status In Orbit
Owner/State SPXS/US

Large Constellations

Loading constellations...